Stations météo

réclame
Mon MeteoGroup
Lulea/Kallax, Suède (2186): Température de l'air & dewpoint: 11.12.2018 06:00:00 - 17.12.2018 06:00:00 (CET)Lulea/Kallax, Suède (2186): Vitesse du vent & gusts: 11.12.2018 06:00:00 - 17.12.2018 06:00:00 (CET)Lulea/Kallax, Suède (2186): Direction du vent: 11.12.2018 06:00:00 - 17.12.2018 06:00:00 (CET)Lulea/Kallax, Suède (2186): reduced air pressure: 11.12.2018 06:00:00 - 17.12.2018 06:00:00 (CET)Lulea/Kallax, Suède (2186): visibility: 11.12.2018 06:00:00 - 17.12.2018 06:00:00 (CET)Lulea/Kallax, Suède (2186): Quantités de précipitations: 11.12.2018 06:00:00 - 17.12.2018 06:00:00 (CET)
Date & Time tt [°C] td [°C] ff [km/h] ff [knt] fx [km/h] fx [knt] dd ppp [hPa] vv [km] rr [mm]
17.12.2018 06:00:00 -2,8 -4,1 9 5 18 10 S 1025,1 10 0,0
17.12.2018 05:00:00 -2,7 -4,1 9 5 22 12 S 1025,6 10 0,0
17.12.2018 04:00:00 -2,8 -3,5 11 6 22 12 S 1025,9 10 0,0
17.12.2018 03:00:00 -3,8 -4,2 4 2 11 6 SSW 1026,1 10 0,0
17.12.2018 02:00:00 -5,4 -5,9 5 3 7 4 S 1026,3 10 0,0
17.12.2018 01:00:00 -6,9 -7,7 0 0 4 2 N 1026,8 10 0,0
17.12.2018 00:00:00 -7,6 -8,4 0 0 4 2 N 1027,2 10 0,0
16.12.2018 23:00:00 -8,7 -9,6 0 0 4 2 N 1027,7 10 0,0
16.12.2018 22:00:00 -10,0 -11,1 0 0 4 2 N 1028,0 10 0,0
16.12.2018 21:00:00 -11,2 -12,4 0 0 4 2 N 1028,3 10 0,0
16.12.2018 20:00:00 -12,7 -13,9 0 0 7 4 N 1028,8 10 0,0
16.12.2018 19:00:00 -12,9 -14,2 2 1 7 4 NW 1028,9 7 0,0
16.12.2018 18:00:00 -13,3 -14,7 2 1 7 4 - 1029,3 9 0,0
16.12.2018 17:00:00 -12,7 -14,0 0 0 4 2 N 1029,1 10 0,0
16.12.2018 16:00:00 -13,6 -15,0 2 1 4 2 NW 1029,4 10 0,0
16.12.2018 15:00:00 -14,3 -15,8 0 0 7 4 N 1029,8 10 0,0
16.12.2018 14:00:00 -14,9 -16,4 0 0 4 2 N 1030,0 9 0,0
16.12.2018 13:00:00 -15,8 -17,5 2 1 7 4 - 1030,2 10 0,0
16.12.2018 12:00:00 -16,3 -18,0 2 1 7 4 NNW 1030,7 10 0,0
16.12.2018 11:00:00 -16,5 -18,2 4 2 7 4 NNW 1031,3 10 0,0
16.12.2018 10:00:00 -17,1 -18,9 0 0 4 2 N 1031,8 10 0,0
16.12.2018 09:00:00 -18,2 -20,1 2 1 4 2 - 1031,6 10 0,0
16.12.2018 08:00:00 -19,9 -21,9 2 1 7 4 - 1031,8 10 0,0
16.12.2018 07:00:00 -21,8 -24,0 2 1 4 2 NNW 1032,2 10 0,0
16.12.2018 06:00:00 -22,3 -24,5 0 0 7 4 N 1032,2 10 0,0
16.12.2018 05:00:00 -22,6 -25,0 2 1 4 2 NNW 1032,7 10 0,0
16.12.2018 04:00:00 -22,2 -24,4 2 1 4 2 NW 1032,5 10 0,0
16.12.2018 03:00:00 -22,1 -24,3 0 0 4 2 N 1032,8 10 0,0
16.12.2018 02:00:00 -22,4 -24,6 2 1 4 2 NNW 1032,9 10 0,0
16.12.2018 01:00:00 -22,0 -24,2 0 0 4 2 N 1033,0 1,5 0,0
16.12.2018 00:00:00 -21,5 -23,7 2 1 4 2 NW 1033,0 6 0,0
15.12.2018 23:00:00 -21,4 -23,5 0 0 4 2 N 1033,0 3,0 0,0
15.12.2018 22:00:00 -21,3 -23,4 0 0 4 2 N 1033,2 10 0,0
15.12.2018 21:00:00 -21,4 -23,5 2 1 4 2 NW 1033,0 3,1 0,2
15.12.2018 20:00:00 -21,8 -24,0 2 1 4 2 NNW 1033,3 0,8 0,1
15.12.2018 19:00:00 -21,2 -23,3 0 0 4 2 N 1033,2 5 0,0
15.12.2018 18:00:00 -21,1 -23,2 2 1 4 2 NW 1033,5 10 0,0
15.12.2018 17:00:00 -20,8 -22,9 2 1 4 2 NW 1033,4 10 0,0
15.12.2018 16:00:00 -20,5 -22,6 0 0 4 2 N 1033,6 10 0,0
15.12.2018 15:00:00 -20,8 -22,9 2 1 4 2 NNW 1033,8 10 0,0
15.12.2018 14:00:00 -20,2 -22,3 5 3 4 2 NW 1033,7 10 0,0
15.12.2018 13:00:00 -18,8 -20,7 2 1 4 2 NW 1033,6 0,9 0,0
15.12.2018 12:00:00 -18,4 -20,3 4 2 7 4 NW 1033,6 10 0,0
15.12.2018 11:00:00 -18,4 -20,3 5 3 7 4 NW 1033,6 10 0,0
15.12.2018 10:00:00 -18,5 -20,4 4 2 7 4 NW 1033,5 10 0,0
15.12.2018 09:00:00 -18,0 -19,9 0 0 7 4 N 1033,5 10 0,0
15.12.2018 08:00:00 -17,9 -19,7 4 2 4 2 NW 1033,1 4,0 0,0
15.12.2018 07:00:00 -17,2 -18,8 0 0 4 2 N 1033,0 0,8 0,0
15.12.2018 06:00:00 -17,7 -19,5 4 2 7 4 NW 1032,8 3,0 0,0
15.12.2018 05:00:00 -17,3 -18,9 4 2 7 4 NNW 1032,6 1,4 0,0
15.12.2018 04:00:00 -18,1 -19,7 4 2 7 4 NNW 1032,6 10 0,0
15.12.2018 03:00:00 -19,2 -21,1 4 2 11 6 NNW 1032,7 10 0,0
15.12.2018 02:00:00 -19,8 -21,8 2 1 11 6 NNW 1032,8 10 0,0
15.12.2018 01:00:00 -19,9 -22,0 8 4 11 6 NNW 1033,0 10 0,0
15.12.2018 00:00:00 -19,4 -21,4 4 2 7 4 NNW 1033,0 10 0,0
14.12.2018 23:00:00 -19,7 -21,7 5 3 7 4 NNW 1032,9 10 0,0
14.12.2018 22:00:00 -19,4 -21,4 4 2 7 4 NNW 1032,8 10 0,0
14.12.2018 21:00:00 -19,4 -21,3 5 3 11 6 NNW 1032,8 10 0,0
14.12.2018 20:00:00 -19,3 -21,3 4 2 11 6 NNW 1032,4 10 0,0
14.12.2018 19:00:00 -19,7 -21,7 5 3 11 6 NNW 1032,4 10 0,0
14.12.2018 18:00:00 -18,6 -20,4 0 0 11 6 N 1032,4 10 0,0
14.12.2018 17:00:00 -19,9 -21,9 4 2 7 4 NNW 1032,3 10 0,0
14.12.2018 16:00:00 -18,7 -20,7 4 2 7 4 NW 1032,5 10 0,0
14.12.2018 15:00:00 -18,7 -20,6 4 2 7 4 NNW 1032,2 10 0,0
14.12.2018 14:00:00 -18,4 -20,4 5 3 7 4 N 1032,0 10 0,0
14.12.2018 13:00:00 -18,4 -20,3 4 2 7 4 NW 1031,9 10 0,0
14.12.2018 12:00:00 -18,1 -20,0 2 1 11 6 - 1032,0 10 0,0
14.12.2018 11:00:00 -18,8 -21,0 4 2 7 4 NNW 1031,5 10 0,0
14.12.2018 10:00:00 -19,0 -21,0 0 0 7 4 N 1031,4 10 0,0
14.12.2018 09:00:00 -19,8 -21,8 5 3 7 4 NNW 1031,3 10 0,0
14.12.2018 08:00:00 -18,7 -20,6 4 2 7 4 NNW 1031,1 10 0,0
14.12.2018 07:00:00 -19,1 -20,8 0 0 7 4 N 1030,8 10 0,0
14.12.2018 06:00:00 -18,8 -20,7 5 3 11 6 NNW 1030,8 10 0,0
14.12.2018 05:00:00 -20,3 -22,4 8 4 7 4 NW 1030,7 10 0,0
14.12.2018 04:00:00 -18,9 -20,8 0 0 7 4 N 1030,3 10 0,0
14.12.2018 03:00:00 -20,4 -22,5 8 4 11 6 NNW 1030,9 10 0,0
14.12.2018 02:00:00 -18,7 -20,6 0 0 7 4 N 1030,7 10 0,0
14.12.2018 01:00:00 -20,1 -22,2 5 3 7 4 NW 1031,2 10 0,0
14.12.2018 00:00:00 -19,0 -20,7 0 0 7 4 N 1030,8 10 0,0
13.12.2018 23:00:00 -19,0 -20,9 2 1 7 4 NNW 1031,1 10 0,0
13.12.2018 22:00:00 -19,2 -21,2 2 1 7 4 - 1030,9 10 0,0
13.12.2018 21:00:00 -19,4 -21,6 5 3 7 4 NW 1031,0 10 0,0
13.12.2018 20:00:00 -18,6 -20,4 0 0 4 2 N 1030,8 10 0,0
13.12.2018 19:00:00 -19,0 -20,9 8 4 7 4 NW 1031,2 10 0,0
13.12.2018 18:00:00 -18,2 -20,0 0 0 7 4 N 1031,1 10 0,0
13.12.2018 17:00:00 -18,5 -20,3 2 1 7 4 NW 1031,3 10 0,0
13.12.2018 16:00:00 -17,7 -19,6 4 2 7 4 NW 1031,4 10 0,0
13.12.2018 15:00:00 -18,1 -20,0 2 1 7 4 - 1031,1 10 0,0
13.12.2018 14:00:00 -17,7 -19,5 2 1 7 4 NNW 1031,4 10 0,0
13.12.2018 13:00:00 -17,8 -19,7 5 3 7 4 NW 1031,4 10 0,0
13.12.2018 12:00:00 -17,8 -19,7 4 2 7 4 NNW 1031,6 10 0,0
13.12.2018 11:00:00 -17,8 -19,7 4 2 7 4 NW 1031,8 10 0,0
13.12.2018 10:00:00 -18,0 -19,8 4 2 11 6 NNW 1031,7 10 0,0
13.12.2018 09:00:00 -18,2 -20,1 5 3 7 4 NNW 1031,8 10 0,0
13.12.2018 08:00:00 -17,0 -18,6 4 2 7 4 - 1031,7 10 0,0
13.12.2018 07:00:00 -16,3 -18,0 4 2 7 4 NW 1031,7 10 0,0
13.12.2018 06:00:00 -16,3 -18,0 5 3 7 4 SW 1031,6 10 0,0
13.12.2018 05:00:00 -17,1 -18,9 4 2 7 4 NW 1031,8 10 0,0
13.12.2018 04:00:00 -17,1 -18,9 2 1 4 2 - 1032,5 10 0,0
13.12.2018 03:00:00 -16,7 -18,2 0 0 7 4 N 1032,6 10 0,0
13.12.2018 02:00:00 -15,9 -17,4 4 2 7 4 NW 1032,6 10 0,0
13.12.2018 01:00:00 -16,0 -17,4 0 0 7 4 N 1033,0 10 0,0
13.12.2018 00:00:00 -15,7 -17,2 2 1 7 4 NW 1033,4 10 0,0
12.12.2018 23:00:00 -15,8 -17,5 4 2 7 4 NW 1033,1 10 0,0
12.12.2018 22:00:00 -15,4 -16,9 0 0 7 4 N 1033,2 10 0,0
12.12.2018 21:00:00 -14,7 -16,0 5 3 7 4 NW 1033,3 10 0,0
12.12.2018 20:00:00 -14,6 -15,9 0 0 7 4 N 1033,6 10 0,0
12.12.2018 19:00:00 -13,8 -15,2 4 2 7 4 NNW 1033,3 10 0,0
12.12.2018 18:00:00 -13,2 -14,5 4 2 7 4 NW 1033,2 10 0,0
12.12.2018 17:00:00 -13,5 -14,7 8 4 14 8 NNW 1033,1 10 0,0
12.12.2018 16:00:00 -13,2 -14,4 8 4 11 6 N 1032,8 10 0,0
12.12.2018 15:00:00 -12,5 -13,7 4 2 11 6 NNW 1032,7 10 0,0
12.12.2018 14:00:00 -11,9 -13,3 2 1 7 4 NNW 1032,3 10 0,0
12.12.2018 13:00:00 -11,7 -13,0 5 3 14 8 NNW 1032,2 10 0,0
12.12.2018 12:00:00 -11,1 -12,6 5 3 14 8 NNW 1032,1 10 0,0
12.12.2018 11:00:00 -11,8 -13,1 11 6 14 8 NW 1031,8 10 0,0
12.12.2018 10:00:00 -10,9 -12,4 5 3 14 8 NNW 1031,6 10 0,0
12.12.2018 09:00:00 -11,3 -12,7 8 4 18 10 NNW 1031,0 10 0,0
12.12.2018 08:00:00 -11,1 -12,7 9 5 14 8 NNW 1030,9 10 0,0
12.12.2018 07:00:00 -10,4 -11,9 9 5 14 8 NNW 1030,6 10 0,0
12.12.2018 06:00:00 -9,6 -11,2 5 3 14 8 NNW 1029,8 10 0,0
12.12.2018 05:00:00 -9,8 -11,3 13 7 22 12 NW 1029,5 10 0,0
12.12.2018 04:00:00 -8,9 -10,4 11 6 22 12 N 1029,1 10 0,0
12.12.2018 03:00:00 -9,0 -10,5 11 6 18 10 NNW 1028,9 10 0,0
12.12.2018 02:00:00 -8,8 -10,4 13 7 22 12 NNW 1028,4 10 0,0
12.12.2018 01:00:00 -8,5 -10,1 11 6 22 12 NNW 1028,0 10 0,0
12.12.2018 00:00:00 -7,9 -9,5 15 8 22 12 NNW 1027,3 10 0,0
11.12.2018 23:00:00 -7,5 -9,1 9 5 22 12 NNW 1026,9 10 0,0
11.12.2018 22:00:00 -7,4 -8,9 9 5 22 12 NW 1026,4 10 0,0
11.12.2018 21:00:00 -7,2 -8,7 16 9 22 12 NW 1026,1 10 0,0
11.12.2018 20:00:00 -6,9 -8,3 11 6 14 8 NW 1025,7 10 0,0
11.12.2018 19:00:00 -6,6 -8,0 9 5 22 12 NNW 1025,5 10 0,0
11.12.2018 18:00:00 -6,0 -7,4 13 7 22 12 NNW 1024,9 10 0,0
11.12.2018 17:00:00 -6,0 -7,4 9 5 18 10 NNW 1024,4 10 0,0
11.12.2018 16:00:00 -4,8 -6,5 11 6 22 12 N 1023,7 10 0,0
11.12.2018 15:00:00 -4,3 -5,8 15 8 22 12 NNW 1023,0 10 0,0
11.12.2018 14:00:00 -3,3 -5,0 15 8 22 12 NNW 1022,5 10 0,0
11.12.2018 13:00:00 -2,4 -4,1 15 8 32 18 NNW 1021,9 10 0,0
11.12.2018 12:00:00 -1,7 -3,4 15 8 32 18 N 1021,2 10 0,0
11.12.2018 11:00:00 -1,2 -2,8 11 6 18 10 N 1020,4 10 0,0
11.12.2018 10:00:00 -1,0 -2,4 11 6 18 10 N 1019,9 10 0,0
11.12.2018 09:00:00 -1,0 -2,6 13 7 22 12 N 1019,3 10 0,0
11.12.2018 08:00:00 -1,3 -2,6 13 7 22 12 NNW 1018,7 10 0,0
11.12.2018 07:00:00 -1,7 -3,0 8 4 18 10 NNW 1018,0 10 0,0
11.12.2018 06:00:00 -2,3 -3,4 13 7 18 10 NNW 1017,5 10 0,0

tt = Température de l'air
td = dewpoint
ff = Vitesse du vent
fx = gusts
dd = Direction du vent
ppp = reduced air pressure
vv = visibility
rr = Quantités de précipitations

stations d'obs. à proximité